Dauntless Aviation
Greetings, Guest! To participate, [sign up for a free account] or [log in]
Airports Europe United Kingdom
EGLC
LCY

London City

London, UNITED KINGDOM

Airport Info
Edit

Location

Latitude / Longitude: 51°30'18"N / 0°3'12"E
  51°30.3'N / 0°3.21'E
  51.5050 / 0.0535

Nearby radio navigation aids

LCY CITY NDB on field.

Runway Information

Runway 10 /28

Dimensions: 4948 x 98 ft.
Surface: ASP
 
Runway 10
Runway 28
Latitude: 51.505528 51.504922
Longitude: 0.045753 0.064953
Elevation: 16 ft. 16 ft.
Runway true heading: 91.1 271.1
 

Instrument Procedures

  Control Zone and Control Area Chart
  Aircraft Parking/Docking Chart
  Aerodrome Chart

STARs (Standard Terminal Arrivals)

  STAR via SPEAR (Northwest)
  STAR via ALKIN (South)
  STAR via SPEAR (East)
  STAR via SPEAR (West)
  STAR via SPEAR (Alternate Holding at LOGAN and ALKIN)

IAPs (Instrument Approach Procedures)

  LOC/DME/NDB (L) Rwy 27 (Aircraft CAT A/B/C)
  Visual Approach Profile Rwy 27
  ILS (5.5°GP) /DME/NDB (L) Rwy 27 (Aircraft CAT A/B/C)
  Visual Approach Profile Rwy 09
  LOC/DME/NDB (L) Rwy 09
  ATC Surveillance Minimum Altitude Chart
  ILS (5.5°GP) /DME/NDB (L) Rwy 09 (Aircraft CAT A/B/C)

Departure Procedures

  SID DOVER/LYDD
  SID CLACTON
  SID SOUTHAMPTON
  SID BROOKMANS PARK/COMPTON
Satellite photo at:
Airport distance calculator
From:
Weather Reports

METAR

EGLC

EGLC 270750Z 28011KT CAVOK 07/01 Q1020
EGKB
11.4nm S
EGKB 270750Z 27006KT CAVOK 04/M00 Q1020
EGWU
17.8nm W
EGWU 270750Z 26005KT CAVOK 05/01 Q1020 BLU NOSIG
EGLL
18.9nm SW
EGLL 270750Z 25007KT CAVOK 05/02 Q1020 NOSIG
EGSS
23.5nm N
EGSS 270750Z 29009KT CAVOK 05/01 Q1019
EGKK
23.8nm S
EGKK 270750Z 26007KT CAVOK 04/01 Q1020

TAF

EGLC
TAF EGLC 270500Z 2706/2715 28008KT CAVOK
EGKB
11.4nm S
TAF EGKB 270733Z 2707/2715 27008KT CAVOK
EGWU
17.8nm W
TAF EGWU 270431Z 2706/2724 28006KT 9999 FEW040 PROB30 TEMPO 2722/2724 SCT020
EGLL
18.9nm SW
TAF EGLL 270457Z 2706/2812 27005KT 9999 FEW035 BECMG 2800/2803 BKN012 TEMPO 2803/2808 4000 -RADZ SCT005 BKN008 BECMG 2808/2810 24015G25KT SCT020 PROB30 TEMPO 2810/2812 7000 RA BKN014
EGSS
23.5nm N
TAF EGSS 270458Z 2706/2812 28007KT CAVOK BECMG 2721/2724 BKN030 BECMG 2800/2803 BKN010 BECMG 2803/2806 18013KT 7000 BKN008 TEMPO 2803/2809 3000 DZ BR BKN004 BECMG 2809/2812 9999 SCT015 PROB40 TEMPO 2810/2812 16015G25KT RA
EGKK
23.8nm S
TAF EGKK 270457Z 2706/2812 25006KT 9999 FEW030 BECMG 2722/2801 BKN012 BECMG 2800/2803 18010KT 5000 BR BKN007 TEMPO 2803/2809 2000 RADZ BKN003 BECMG 2809/2812 24012KT 9999 NSW SCT012
Safelog

 

Dauntless Aviation

© 2007-2015 Dauntless Aviation, all rights reserved
Information provided via PilotNav comes from a variety of official and unofficial data sources. As errors are possible, do not use PilotNav for primary flight planning purposes. Verify any information that you receive via PilotNav with current and canonical charts and other official documents. The material in this database is subject to database copyrights held by Dauntless Aviation and may not be copied without the express permission of Dauntless Aviation - licenses for use of part of all of this data are available for purchase; enquire via the Dauntless Aviation helpdesk. A number of mechanisms and markers exist in the database to protect against and identify infringement / copyright. Automated queries against this website are stictly prohibited, and all activity is logged and analyzed.